QPF
0.00 0.00 0.00 0.00 0.00 0.00 0.00 0.00 0.00 0.00 0.00 0.00 0.00 0.00 0.00 0.00 0.00 0.00 0.00 0.00 0.00 0.00 0.00 0.00 0.00 0.00 0.00 0.00 0.00 0.00 0.00 0.00 0.00 0.00 0.00 0.00 0.00 0.00 0.00 0.00 0.00 0.00 0.00 0.00 0.00 0.00 0.00 0.00 0.00 0.00 0.00 0.00 0.00 0.00
0.00 0.00 0.00 0.00 0.00 0.00 0.00 0.00 0.00 0.00 0.00 0.00 0.00 0.00 0.00 0.00 0.00 0.00 0.00 0.00 0.00 0.00 0.00 0.00 0.00 0.00 0.00 0.00 0.00 0.00 0.00 0.00 0.00 0.00 0.00 0.00 0.00 0.00 0.00 0.00 0.00 0.00 0.00 0.00 0.00 0.00 0.00 0.00 0.00 0.00 0.00 0.00 0.00 0.00
0.00 0.00 0.00 0.00 0.00 0.00 0.00 0.00 0.00 0.00 0.00 0.00 0.00 0.00 0.00 0.00 0.00 0.00 0.00 0.00 0.00 0.00 0.00 0.00 0.00 0.00 0.00 0.00 0.00 0.00 0.00 0.00 0.00 0.00 0.00 0.00 0.00 0.00 0.00 0.00 0.00 0.00 0.00 0.00 0.00 0.00 0.00 0.00 0.00 0.00 0.00 0.00 0.00 0.00
0.00 0.00 0.00 0.00 0.00 0.00 0.00 0.00 0.00 0.00 0.00 0.00 0.00 0.00 0.00 0.00 0.00 0.00 0.00 0.00 0.00 0.00 0.00 0.00 0.00 0.00 0.00 0.00 0.00 0.00 0.00 0.00 0.00 0.00 0.00 0.00 0.00 0.00 0.00 0.00 0.00 0.00 0.00 0.00 0.00 0.00 0.00 0.00 0.00 0.00 0.00 0.00 0.00 0.00
0.01 0.00 0.00 0.00 0.00 0.00 0.00 0.00 0.00 0.00 0.00 0.00 0.00 0.00 0.00 0.00 0.00 0.00 0.00 0.00 0.00 0.00 0.00 0.00 0.00 0.00 0.00 0.00 0.00 0.00 0.00 0.00 0.00 0.00 0.00 0.00 0.00 0.00 0.00 0.00 0.00 0.00 0.00 0.00 0.00 0.00 0.00 0.00 0.00 0.00 0.00 0.00 0.00 0.00
0.01 0.01 0.00 0.00 0.00 0.00 0.00 0.00 0.00 0.00 0.00 0.00 0.00 0.00 0.00 0.00 0.00 0.00 0.00 0.00 0.00 0.00 0.00 0.00 0.00 0.00 0.00 0.00 0.00 0.00 0.00 0.00 0.00 0.00 0.00 0.00 0.00 0.00 0.00 0.00 0.00 0.00 0.00 0.00 0.00 0.00 0.00 0.00 0.00 0.00 0.00 0.00 0.00 0.00
0.01 0.02 0.01 0.00 0.00 0.00 0.00 0.00 0.00 0.00 0.00 0.00 0.00 0.00 0.00 0.00 0.00 0.00 0.00 0.00 0.00 0.00 0.00 0.00 0.00 0.00 0.00 0.00 0.00 0.00 0.00 0.00 0.00 0.00 0.00 0.00 0.00 0.00 0.00 0.00 0.00 0.00 0.00 0.00 0.00 0.00 0.00 0.00 0.00 0.00 0.00 0.00 0.00 0.00
0.02 0.03 0.02 0.01 0.00 0.00 0.00 0.00 0.00 0.00 0.00 0.00 0.00 0.00 0.00 0.00 0.00 0.00 0.00 0.00 0.00 0.00 0.00 0.00 0.00 0.00 0.00 0.00 0.00 0.00 0.00 0.00 0.00 0.00 0.00 0.00 0.00 0.00 0.00 0.00 0.00 0.00 0.00 0.00 0.00 0.00 0.00 0.00 0.00 0.00 0.00 0.00 0.00 0.00
0.04 0.06 0.02 0.02 0.01 0.01 0.00 0.00 0.00 0.00 0.00 0.00 0.00 0.00 0.00 0.00 0.00 0.00 0.00 0.00 0.00 0.00 0.00 0.00 0.00 0.00 0.00 0.00 0.00 0.00 0.00 0.00 0.00 0.00 0.00 0.00 0.00 0.00 0.00 0.00 0.00 0.00 0.00 0.00 0.00 0.00 0.00 0.00 0.00 0.00 0.00 0.00 0.00 0.00
0.06 0.01 0.00 0.01 0.01 0.01 0.01 0.00 0.00 0.00 0.00 0.00 0.00 0.00 0.00 0.00 0.00 0.00 0.00 0.00 0.00 0.00 0.00 0.00 0.00 0.00 0.00 0.00 0.00 0.00 0.00 0.00 0.00 0.00 0.00 0.00 0.00 0.00 0.00 0.00 0.00 0.00 0.00 0.00 0.00 0.00 0.00 0.00 0.00 0.00 0.00 0.00 0.00 0.00
0.00 0.00 0.00 0.00 0.01 0.01 0.02 0.01 0.00 0.00 0.00 0.00 0.00 0.00 0.00 0.00 0.00 0.00 0.00 0.00 0.00 0.00 0.00 0.00 0.00 0.00 0.00 0.00 0.00 0.00 0.00 0.00 0.00 0.00 0.00 0.00 0.00 0.00 0.00 0.00 0.00 0.00 0.00 0.00 0.00 0.00 0.00 0.00 0.00 0.00 0.00 0.00 0.00 0.00
0.01 0.00 0.01 0.00 0.01 0.02 0.03 0.01 0.00 0.00 0.00 0.00 0.00 0.00 0.00 0.00 0.00 0.00 0.00 0.00 0.00 0.00 0.00 0.00 0.00 0.00 0.00 0.00 0.00 0.00 0.00 0.00 0.00 0.00 0.00 0.00 0.00 0.00 0.00 0.00 0.00 0.00 0.00 0.00 0.00 0.00 0.00 0.00 0.00 0.00 0.00 0.00 0.00 0.00
0.01 0.02 0.01 0.01 0.02 0.01 0.00 0.00 0.00 0.00 0.00 0.00 0.00 0.00 0.00 0.00 0.00 0.00 0.00 0.00 0.00 0.00 0.00 0.00 0.00 0.00 0.00 0.00 0.00 0.00 0.00 0.00 0.00 0.00 0.00 0.00 0.00 0.00 0.00 0.00 0.00 0.00 0.00 0.00 0.00 0.00 0.00 0.00 0.00 0.00 0.00 0.00 0.00 0.00
0.00 0.00 0.00 0.01 0.01 0.00 0.00 0.00 0.00 0.00 0.00 0.00 0.00 0.00 0.00 0.00 0.00 0.00 0.00 0.00 0.00 0.00 0.00 0.00 0.00 0.00 0.00 0.00 0.00 0.00 0.00 0.00 0.00 0.00 0.00 0.00 0.00 0.00 0.00 0.00 0.00 0.00 0.00 0.00 0.00 0.00 0.00 0.00 0.00 0.00 0.00 0.00 0.00 0.00
0.00 0.00 0.00 0.01 0.00 0.00 0.00 0.00 0.00 0.00 0.00 0.00 0.00 0.00 0.00 0.00 0.00 0.00 0.00 0.01 0.00 0.00 0.00 0.00 0.00 0.00 0.00 0.00 0.00 0.00 0.00 0.00 0.00 0.00 0.00 0.00 0.00 0.00 0.00 0.00 0.00 0.00 0.00 0.00 0.00 0.00 0.00 0.00 0.00 0.00 0.00 0.00 0.00 0.00
0.00 0.00 0.00 0.00 0.00 0.00 0.00 0.00 0.00 0.00 0.00 0.00 0.00 0.00 0.00 0.00 0.00 0.00 0.00 0.00 0.00 0.00 0.00 0.00 0.00 0.00 0.00 0.00 0.00 0.00 0.00 0.00 0.00 0.00 0.00 0.00 0.00 0.00 0.00 0.00 0.00 0.00 0.00 0.00 0.00 0.00 0.00 0.00 0.00 0.00 0.00 0.00 0.00 0.00
0.00 0.00 0.00 0.00 0.00 0.00 0.00 0.00 0.00 0.00 0.00 0.00 0.00 0.00 0.00 0.00 0.00 0.00 0.00 0.00 0.00 0.00 0.00 0.00 0.00 0.00 0.00 0.00 0.00 0.00 0.00 0.00 0.00 0.00 0.00 0.00 0.00 0.00 0.00 0.00 0.00 0.00 0.00 0.00 0.00 0.00 0.00 0.00 0.00 0.00 0.00 0.00 0.00 0.00
0.00 0.00 0.00 0.00 0.00 0.00 0.00 0.00 0.00 0.00 0.00 0.00 0.00 0.00 0.00 0.00 0.00 0.00 0.00 0.00 0.00 0.00 0.00 0.00 0.00 0.00 0.00 0.00 0.00 0.00 0.00 0.00 0.00 0.00 0.00 0.00 0.00 0.00 0.00 0.00 0.00 0.00 0.00 0.00 0.00 0.00 0.00 0.00 0.00 0.00 0.00 0.00 0.00 0.00
0.00 0.00 0.00 0.00 0.00 0.00 0.00 0.00 0.00 0.00 0.00 0.00 0.00 0.00 0.00 0.00 0.00 0.00 0.00 0.00 0.00 0.00 0.00 0.00 0.00 0.00 0.00 0.00 0.00 0.00 0.00 0.00 0.00 0.00 0.00 0.00 0.00 0.00 0.00 0.00 0.00 0.00 0.00 0.00 0.00 0.00 0.00 0.00 0.00 0.00 0.00 0.00 0.00 0.00
0.00 0.00 0.00 0.00 0.00 0.00 0.00 0.00 0.00 0.00 0.00 0.00 0.00 0.00 0.00 0.00 0.00 0.00 0.00 0.00 0.00 0.00 0.00 0.00 0.00 0.00 0.00 0.00 0.00 0.00 0.00 0.00 0.00 0.00 0.00 0.00 0.00 0.00 0.00 0.00 0.00 0.00 0.00 0.00 0.00 0.00 0.00 0.00 0.00 0.00 0.00 0.00 0.00 0.00
0.00 0.00 0.00 0.00 0.00 0.00 0.00 0.00 0.00 0.00 0.00 0.00 0.00 0.01 0.01 0.00 0.00 0.00 0.00 0.00 0.00 0.00 0.00 0.00 0.00 0.00 0.00 0.00 0.00 0.00 0.00 0.00 0.00 0.00 0.00 0.00 0.00 0.00 0.00 0.00 0.00 0.00 0.00 0.00 0.00 0.00 0.00 0.00 0.00 0.00 0.00 0.00 0.00 0.00
0.00 0.00 0.00 0.00 0.00 0.00 0.00 0.00 0.00 0.00 0.00 0.00 0.00 0.00 0.01 0.00 0.00 0.00 0.00 0.00 0.00 0.00 0.00 0.00 0.00 0.00 0.00 0.00 0.00 0.00 0.00 0.00 0.00 0.00 0.00 0.00 0.00 0.00 0.00 0.00 0.00 0.00 0.00 0.00 0.00 0.00 0.00 0.00 0.00 0.00 0.00 0.00 0.00 0.00
0.00 0.00 0.00 0.00 0.00 0.00 0.00 0.00 0.00 0.00 0.00 0.00 0.00 0.00 0.00 0.00 0.01 0.01 0.00 0.00 0.00 0.00 0.00 0.00 0.00 0.00 0.00 0.00 0.00 0.00 0.00 0.00 0.00 0.00 0.00 0.00 0.00 0.00 0.00 0.00 0.00 0.00 0.00 0.00 0.00 0.00 0.00 0.00 0.00 0.00 0.00 0.00 0.00 0.00
0.00 0.00 0.00 0.00 0.00 0.00 0.00 0.00 0.00 0.00 0.00 0.00 0.00 0.00 0.00 0.00 0.00 0.01 0.00 0.00 0.00 0.00 0.00 0.00 0.00 0.00 0.00 0.00 0.00 0.00 0.00 0.00 0.00 0.00 0.00 0.00 0.00 0.00 0.00 0.00 0.00 0.00 0.00 0.00 0.00 0.00 0.00 0.00 0.00 0.00 0.00 0.00 0.00 0.00
0.00 0.00 0.00 0.00 0.00 0.00 0.00 0.00 0.00 0.00 0.00 0.00 0.00 0.00 0.00 0.00 0.00 0.00 0.00 0.00 0.00 0.00 0.00 0.00 0.00 0.00 0.00 0.00 0.00 0.00 0.00 0.00 0.00 0.00 0.00 0.00 0.00 0.00 0.00 0.00 0.00 0.00 0.00 0.00 0.00 0.00 0.00 0.00 0.00 0.00 0.00 0.00 0.00 0.00
0.00 0.00 0.00 0.00 0.00 0.00 0.00 0.00 0.00 0.00 0.00 0.00 0.00 0.00 0.00 0.00 0.00 0.00 0.00 0.00 0.00 0.00 0.00 0.00 0.00 0.00 0.00 0.00 0.00 0.00 0.00 0.00 0.00 0.00 0.00 0.00 0.00 0.00 0.00 0.00 0.00 0.00 0.00 0.00 0.00 0.00 0.00 0.00 0.00 0.00 0.00 0.00 0.00 0.00
0.00 0.00 0.00 0.00 0.00 0.00 0.00 0.00 0.00 0.00 0.00 0.00 0.00 0.00 0.00 0.00 0.00 0.00 0.00 0.00 0.00 0.00 0.00 0.00 0.00 0.00 0.00 0.00 0.00 0.00 0.00 0.00 0.00 0.00 0.00 0.00 0.00 0.00 0.00 0.00 0.00 0.00 0.00 0.00 0.00 0.00 0.00 0.00 0.00 0.00 0.00 0.00 0.00 0.00
0.00 0.00 0.00 0.00 0.00 0.00 0.00 0.00 0.00 0.00 0.00 0.00 0.00 0.00 0.00 0.00 0.00 0.00 0.00 0.00 0.00 0.00 0.00 0.00 0.00 0.00 0.00 0.00 0.00 0.00 0.00 0.00 0.00 0.00 0.00 0.00 0.00 0.00 0.00 0.00 0.00 0.00 0.00 0.00 0.00 0.00 0.00 0.00 0.00 0.00 0.00 0.00 0.00 0.00
0.00 0.00 0.00 0.00 0.00 0.00 0.00 0.00 0.00 0.00 0.00 0.00 0.00 0.00 0.00 0.00 0.00 0.00 0.00 0.00 0.00 0.00 0.00 0.00 0.00 0.00 0.00 0.00 0.00 0.00 0.00 0.00 0.00 0.00 0.00 0.00 0.00 0.00 0.00 0.00 0.00 0.00 0.00 0.00 0.00 0.00 0.00 0.00 0.00 0.00 0.00 0.00 0.00 0.00
0.00 0.00 0.00 0.00 0.00 0.00 0.00 0.00 0.00 0.00 0.00 0.00 0.00 0.00 0.00 0.00 0.00 0.00 0.00 0.00 0.00 0.00 0.00 0.00 0.00 0.00 0.00 0.00 0.00 0.00 0.00 0.00 0.00 0.00 0.00 0.00 0.00 0.00 0.00 0.00 0.00 0.00 0.00 0.00 0.00 0.00 0.00 0.00 0.00 0.00 0.00 0.00 0.00 0.00
0.00 0.00 0.00 0.00 0.00 0.00 0.00 0.00 0.00 0.00 0.00 0.00 0.00 0.00 0.00 0.00 0.00 0.00 0.00 0.00 0.00 0.00 0.00 0.00 0.00 0.00 0.00 0.00 0.00 0.00 0.00 0.00 0.00 0.00 0.00 0.00 0.00 0.00 0.00 0.00 0.00 0.00 0.00 0.00 0.00 0.00 0.00 0.00 0.00 0.00 0.00 0.00 0.00 0.00
0.00 0.00 0.00 0.00 0.00 0.00 0.00 0.00 0.00 0.00 0.00 0.00 0.00 0.00 0.00 0.00 0.00 0.00 0.00 0.00 0.00 0.00 0.00 0.00 0.00 0.00 0.00 0.00 0.00 0.00 0.00 0.00 0.00 0.00 0.00 0.00 0.00 0.00 0.00 0.00 0.00 0.00 0.00 0.00 0.00 0.00 0.00 0.00 0.00 0.00 0.00 0.00 0.00 0.00
0.00 0.00 0.00 0.00 0.00 0.00 0.00 0.00 0.00 0.00 0.00 0.00 0.00 0.00 0.00 0.00 0.00 0.00 0.00 0.00 0.00 0.00 0.00 0.00 0.00 0.00 0.00 0.00 0.00 0.00 0.00 0.00 0.00 0.00 0.00 0.00 0.00 0.00 0.00 0.00 0.00 0.00 0.00 0.00 0.00 0.00 0.00 0.00 0.00 0.00 0.00 0.00 0.00 0.00
MSLP
998.75 998.35 997.85 997.37 996.96 996.44 995.96 995.49 995.20 995.06 994.89 995.05 995.28 995.13 995.42 996.19 996.90 997.63 999.27 999.28 999.28 1001.21 1002.62 1002.25 1002.54 1003.14 1004.00 1004.61 1005.83 1007.73 1008.66 1009.48 1009.69 1009.80 1010.17 1010.90 1010.87 1010.46 1010.68 1010.80 1010.90 1011.36 1012.42 1013.11 1013.53 1013.03 1012.01 1010.28 1010.84 1010.56 1010.76 1010.62 1010.97 1011.75
999.43 999.22 998.95 998.44 998.08 997.68 997.26 996.84 996.43 996.02 995.76 995.56 995.34 995.48 995.98 996.58 997.13 997.49 998.90 998.74 998.57 1000.27 1002.83 1002.96 1003.07 1003.45 1003.32 1003.50 1005.06 1006.95 1007.37 1008.21 1008.98 1009.48 1010.26 1010.32 1010.86 1010.87 1010.46 1010.91 1010.56 1010.97 1010.30 1011.16 1011.67 1010.80 1010.26 1010.01 1010.27 1010.36 1010.40 1010.57 1011.12 1011.45
999.87 999.84 999.71 999.42 999.13 998.92 998.64 998.20 997.73 997.35 997.10 996.84 996.66 996.53 996.48 996.74 997.10 997.29 998.89 999.50 999.34 1001.33 1003.14 1003.32 1004.15 1004.03 1003.60 1004.10 1004.55 1006.09 1007.54 1007.76 1008.38 1008.56 1009.78 1010.44 1011.01 1011.34 1011.18 1010.93 1010.64 1010.54 1010.33 1010.42 1010.74 1010.62 1010.51 1010.34 1010.06 1010.11 1010.59 1010.74 1010.99 1011.30
1000.28 1000.39 1000.40 1000.24 999.94 999.81 999.67 999.32 999.02 998.66 998.40 998.32 998.27 998.13 998.16 998.30 998.51 998.42 999.90 1000.22 1000.25 1001.94 1004.12 1005.08 1004.20 1004.58 1004.66 1004.28 1004.41 1005.06 1006.26 1007.41 1008.23 1008.89 1010.36 1011.23 1011.57 1011.77 1011.88 1011.32 1011.12 1010.96 1010.71 1010.86 1010.95 1010.89 1010.64 1010.45 1010.34 1010.36 1010.76 1010.94 1011.37 1011.46
1000.78 1000.80 1000.89 1000.91 1000.76 1000.67 1000.58 1000.34 1000.10 999.97 999.77 999.47 999.35 999.36 999.41 999.51 999.58 999.56 1000.10 1001.43 1001.64 1002.01 1004.70 1005.57 1005.30 1005.68 1005.80 1005.20 1005.56 1005.95 1006.69 1007.80 1009.09 1010.33 1011.16 1012.03 1011.80 1011.88 1012.38 1012.08 1011.79 1011.20 1011.00 1011.15 1010.98 1010.85 1010.83 1010.92 1010.62 1010.64 1010.97 1011.22 1011.56 1011.88
1001.08 1001.33 1001.40 1001.40 1001.48 1001.58 1001.60 1001.52 1001.34 1001.03 1000.74 1000.60 1000.44 1000.24 1000.06 999.77 999.71 1000.16 1001.49 1001.87 1002.33 1002.59 1004.11 1006.60 1007.67 1007.69 1007.27 1007.04 1007.40 1007.91 1008.43 1009.17 1010.29 1011.22 1012.27 1012.26 1012.04 1011.96 1012.66 1012.38 1011.56 1011.27 1010.40 1010.24 1010.68 1010.93 1010.91 1010.91 1010.74 1010.71 1011.06 1011.43 1011.58 1011.92
1001.36 1001.60 1001.88 1002.09 1002.26 1002.37 1002.38 1002.32 1002.16 1001.95 1001.79 1001.62 1001.38 1001.15 1001.09 1000.81 1000.55 1002.76 1004.67 1004.46 1003.28 1003.15 1005.16 1007.82 1008.83 1008.68 1008.38 1008.42 1009.26 1009.61 1010.05 1011.02 1011.32 1012.56 1012.96 1012.91 1012.75 1012.58 1013.03 1012.42 1011.28 1010.87 1010.51 1010.47 1010.42 1010.82 1010.75 1011.00 1010.85 1010.69 1010.79 1011.17 1011.35 1011.36
1001.77 1001.99 1002.23 1002.50 1002.78 1003.02 1003.14 1003.11 1002.98 1002.88 1002.78 1002.65 1002.54 1002.44 1002.26 1002.06 1002.45 1003.77 1004.36 1003.99 1003.72 1004.61 1006.04 1008.43 1009.93 1009.92 1009.50 1010.26 1010.96 1011.28 1011.78 1012.09 1012.89 1013.61 1013.64 1013.54 1013.41 1013.44 1013.15 1011.42 1010.98 1010.82 1010.84 1010.49 1010.36 1010.39 1010.24 1010.37 1010.58 1010.70 1010.85 1011.10 1011.22 1011.28
1002.09 1002.48 1002.77 1002.93 1003.16 1003.37 1003.49 1003.41 1003.25 1003.09 1002.98 1002.87 1002.70 1002.42 1002.60 1003.75 1005.18 1005.80 1004.91 1004.74 1004.60 1005.65 1007.57 1008.82 1009.88 1010.58 1010.54 1011.18 1011.60 1012.06 1012.54 1013.67 1014.06 1013.92 1013.94 1013.86 1013.94 1013.12 1011.50 1011.09 1010.94 1010.84 1010.92 1010.32 1010.26 1010.56 1010.13 1010.55 1010.38 1010.37 1010.50 1010.83 1011.14 1011.07
1002.78 1003.14 1003.51 1003.66 1003.58 1003.76 1003.92 1003.98 1003.96 1003.87 1003.70 1003.42 1003.36 1003.97 1005.63 1006.31 1005.92 1005.45 1005.58 1005.65 1006.60 1007.97 1008.67 1009.71 1010.18 1010.45 1010.70 1011.21 1012.09 1012.72 1013.07 1013.70 1014.06 1013.96 1013.78 1013.76 1012.89 1011.68 1011.39 1011.01 1010.78 1010.86 1010.64 1010.42 1010.52 1009.94 1009.56 1009.94 1010.17 1010.06 1010.25 1010.24 1010.22 1010.22
1003.55 1003.64 1003.77 1004.00 1004.02 1004.16 1004.48 1004.64 1004.68 1004.58 1004.40 1004.98 1005.81 1006.76 1006.82 1006.16 1006.08 1006.70 1007.82 1008.29 1008.87 1009.38 1009.72 1010.26 1010.42 1010.61 1010.95 1011.37 1012.41 1013.02 1013.41 1013.63 1013.82 1013.83 1013.64 1013.36 1012.37 1011.16 1010.84 1010.57 1010.59 1010.69 1010.41 1010.49 1010.35 1009.52 1009.14 1009.50 1009.60 1009.62 1009.65 1009.62 1009.47 1009.55
1003.91 1003.95 1004.12 1004.28 1004.49 1004.68 1005.08 1005.32 1005.37 1005.56 1006.09 1006.11 1006.42 1007.02 1007.15 1007.46 1008.10 1008.68 1009.60 1009.82 1009.93 1010.35 1010.64 1010.71 1010.71 1010.81 1011.10 1011.17 1012.07 1012.61 1012.56 1012.88 1013.12 1013.10 1013.10 1012.27 1010.91 1010.43 1010.69 1010.62 1010.61 1010.80 1010.73 1010.40 1009.94 1009.36 1009.12 1009.30 1009.06 1009.03 1009.11 1009.26 1009.40 1009.53
1004.46 1004.40 1004.57 1004.56 1004.97 1005.40 1005.79 1005.96 1006.12 1006.40 1006.55 1006.76 1007.09 1007.90 1008.48 1009.24 1009.66 1010.02 1010.49 1010.42 1010.54 1010.63 1010.76 1010.82 1011.10 1011.14 1011.23 1011.09 1011.82 1012.11 1012.24 1012.40 1012.21 1012.53 1012.26 1011.30 1010.57 1010.73 1011.10 1011.27 1011.32 1011.24 1010.99 1010.68 1010.32 1009.89 1009.63 1009.60 1009.64 1009.64 1009.60 1009.81 1009.88 1010.04
1006.00 1006.14 1006.15 1005.85 1005.94 1006.29 1006.46 1006.71 1006.83 1006.83 1007.12 1007.96 1008.57 1009.45 1010.16 1010.44 1010.54 1010.50 1010.36 1010.21 1010.37 1010.48 1010.57 1010.88 1011.22 1011.21 1011.15 1011.32 1011.52 1011.75 1011.97 1011.85 1012.04 1012.04 1011.42 1010.89 1010.87 1011.24 1011.39 1011.52 1011.58 1011.63 1011.45 1011.02 1010.73 1010.56 1010.52 1010.45 1010.44 1010.40 1010.42 1010.47 1010.62 1010.68
1007.00 1006.97 1007.03 1007.16 1007.21 1007.18 1007.21 1007.30 1007.28 1007.38 1008.04 1008.88 1009.40 1010.53 1010.88 1010.99 1010.92 1010.60 1010.44 1010.22 1010.08 1010.19 1010.32 1010.77 1010.96 1010.76 1010.96 1011.17 1011.24 1011.49 1011.92 1011.75 1011.38 1010.96 1010.64 1010.31 1010.50 1010.84 1011.10 1011.41 1011.59 1011.65 1011.54 1011.41 1011.28 1011.22 1011.04 1010.95 1010.94 1010.98 1011.05 1011.12 1011.24 1011.33
1007.66 1007.67 1007.97 1007.85 1007.81 1007.82 1007.73 1007.67 1007.95 1008.34 1008.78 1009.28 1010.12 1010.94 1011.32 1011.50 1011.52 1010.85 1010.46 1010.22 1009.94 1010.14 1010.18 1010.16 1010.63 1010.74 1010.66 1010.58 1010.92 1010.99 1011.16 1010.84 1010.58 1010.40 1010.34 1010.26 1010.33 1010.49 1011.01 1011.42 1011.67 1011.79 1011.78 1011.66 1011.63 1011.66 1011.62 1011.58 1011.55 1011.63 1011.67 1011.75 1011.83 1011.92
1008.22 1008.74 1008.49 1008.44 1008.39 1008.26 1008.12 1008.43 1008.70 1009.01 1009.51 1010.02 1010.95 1011.10 1011.46 1011.68 1011.61 1010.95 1010.33 1009.95 1009.78 1009.98 1010.34 1010.36 1010.47 1010.34 1010.34 1010.24 1010.27 1010.17 1010.11 1009.97 1010.08 1010.36 1010.50 1010.29 1010.21 1010.70 1011.18 1011.54 1011.85 1011.94 1011.98 1011.96 1011.96 1011.94 1011.95 1011.89 1011.89 1011.99 1012.18 1012.40 1012.40 1012.62
1009.24 1009.29 1008.86 1008.84 1008.78 1008.77 1008.88 1008.99 1009.20 1009.52 1009.92 1010.31 1010.78 1011.12 1011.23 1011.18 1011.02 1010.64 1010.19 1009.71 1009.65 1009.80 1009.88 1009.99 1009.90 1010.02 1009.90 1009.46 1009.76 1009.73 1009.66 1009.78 1010.04 1010.26 1010.44 1010.47 1010.56 1010.80 1011.09 1011.34 1011.66 1011.82 1011.92 1011.97 1012.02 1012.06 1012.13 1012.21 1012.29 1012.56 1012.74 1012.85 1012.98 1013.15
1009.61 1009.54 1009.40 1009.31 1009.24 1009.48 1009.75 1009.87 1009.82 1009.96 1010.10 1010.16 1010.36 1010.49 1010.56 1010.51 1010.30 1010.07 1009.73 1009.48 1009.28 1009.25 1009.47 1009.78 1009.96 1009.92 1009.67 1009.41 1009.48 1009.52 1009.54 1009.68 1009.99 1010.49 1010.69 1010.70 1010.65 1010.86 1011.09 1011.34 1011.55 1011.78 1011.93 1011.95 1012.04 1012.25 1012.41 1012.44 1012.58 1012.84 1013.09 1013.22 1013.42 1013.61
1009.91 1009.85 1009.85 1009.76 1009.62 1010.11 1010.20 1010.31 1010.24 1010.23 1010.22 1010.13 1010.02 1010.12 1010.03 1010.04 1009.90 1009.75 1009.62 1009.42 1009.33 1009.41 1009.49 1009.62 1009.60 1009.30 1009.13 1009.11 1009.15 1009.36 1009.32 1009.54 1009.92 1010.39 1010.78 1010.84 1010.77 1010.81 1011.04 1011.29 1011.46 1011.64 1011.84 1011.93 1012.03 1012.26 1012.45 1012.57 1012.78 1013.00 1013.20 1013.48 1013.74 1013.96
1010.35 1010.40 1010.22 1010.28 1010.62 1010.59 1010.61 1010.57 1010.46 1010.34 1010.13 1010.05 1009.75 1009.80 1009.86 1009.76 1009.75 1009.76 1009.70 1009.49 1009.63 1009.60 1009.46 1009.20 1009.08 1008.96 1008.80 1008.95 1008.96 1009.28 1009.47 1009.70 1009.94 1010.02 1010.18 1010.62 1010.76 1010.87 1011.00 1011.14 1011.38 1011.58 1011.75 1011.95 1012.16 1012.36 1012.45 1012.52 1012.60 1012.80 1013.13 1013.40 1013.57 1013.79
1010.94 1010.80 1010.75 1010.76 1010.89 1010.90 1010.84 1010.52 1010.49 1010.25 1010.19 1009.88 1009.74 1009.56 1009.68 1009.82 1009.68 1009.60 1009.53 1009.61 1009.51 1009.08 1008.89 1008.65 1008.56 1008.47 1008.81 1009.03 1009.12 1009.19 1009.28 1009.53 1009.78 1010.07 1010.18 1010.32 1010.88 1011.16 1011.36 1011.35 1011.54 1011.78 1011.53 1011.55 1011.82 1012.10 1012.26 1012.38 1012.52 1012.75 1013.03 1013.25 1013.51 1013.72
1011.17 1011.10 1011.04 1011.12 1011.30 1011.33 1011.04 1010.59 1010.50 1010.06 1009.96 1009.62 1009.50 1009.55 1009.52 1009.52 1009.34 1009.30 1009.48 1009.31 1008.96 1008.39 1008.38 1008.38 1008.28 1008.29 1008.54 1008.78 1008.92 1009.14 1009.35 1009.57 1010.00 1010.18 1010.34 1010.42 1010.57 1010.81 1010.95 1011.10 1011.24 1011.49 1011.70 1011.46 1011.50 1011.84 1012.05 1012.08 1012.34 1012.58 1012.80 1013.13 1013.41 1013.72
1011.24 1011.34 1011.21 1011.40 1011.54 1011.68 1011.18 1010.77 1010.32 1010.00 1009.69 1009.56 1009.51 1009.42 1009.35 1009.41 1009.46 1009.51 1009.40 1009.02 1008.55 1008.47 1008.43 1008.42 1008.41 1008.74 1008.93 1009.07 1009.32 1009.54 1009.53 1009.64 1010.10 1010.39 1010.48 1010.56 1010.98 1011.00 1011.02 1011.11 1011.14 1011.21 1011.34 1011.31 1011.40 1011.60 1011.76 1012.00 1012.20 1012.53 1012.74 1013.12 1013.60 1013.75
1012.00 1011.78 1011.95 1011.86 1011.72 1011.81 1011.49 1010.97 1010.44 1010.17 1010.11 1009.62 1009.61 1009.62 1009.56 1009.52 1009.74 1009.93 1009.52 1009.02 1008.85 1008.88 1008.90 1008.74 1008.72 1008.71 1009.09 1009.40 1009.73 1009.89 1009.80 1009.76 1010.10 1010.58 1010.74 1010.70 1010.90 1011.11 1011.25 1011.38 1011.57 1011.52 1011.47 1011.43 1011.64 1011.80 1012.02 1012.00 1012.06 1012.27 1012.55 1012.98 1013.25 1013.53
1012.61 1013.00 1012.94 1012.81 1012.47 1012.08 1011.66 1011.41 1010.91 1010.51 1010.15 1010.11 1009.87 1009.69 1009.69 1010.04 1010.38 1010.12 1009.40 1009.28 1009.25 1009.18 1009.38 1009.54 1009.27 1009.20 1009.26 1009.30 1009.60 1009.94 1010.06 1010.02 1010.04 1010.53 1010.96 1010.90 1011.04 1011.42 1011.71 1011.88 1012.04 1011.92 1011.76 1011.71 1011.65 1011.63 1011.69 1011.57 1011.75 1011.99 1012.27 1012.52 1012.74 1013.08
1014.29 1014.46 1014.18 1013.99 1013.61 1013.09 1012.29 1011.41 1010.90 1010.75 1010.72 1010.46 1010.22 1010.30 1010.44 1010.92 1010.98 1010.28 1009.65 1009.59 1009.54 1009.41 1009.36 1009.27 1009.30 1009.10 1008.95 1009.44 1009.80 1010.03 1010.13 1010.03 1010.11 1010.55 1010.90 1011.08 1011.19 1011.48 1011.60 1011.80 1011.94 1012.02 1011.80 1011.66 1011.66 1011.63 1011.54 1011.46 1011.52 1011.70 1011.88 1012.02 1012.14 1012.34
1015.70 1015.86 1015.86 1015.37 1014.57 1013.82 1013.08 1012.22 1011.62 1011.25 1011.07 1010.94 1010.74 1010.70 1010.70 1010.80 1011.10 1011.01 1010.43 1010.18 1009.86 1009.58 1009.40 1009.30 1009.05 1008.95 1009.38 1009.82 1010.13 1010.35 1010.59 1010.67 1010.75 1010.98 1011.40 1011.77 1011.92 1011.96 1012.01 1012.06 1012.00 1011.90 1011.74 1011.69 1011.68 1011.59 1011.55 1011.44 1011.34 1011.32 1011.37 1011.68 1011.61 1011.61
1017.32 1017.28 1016.91 1016.73 1015.63 1014.68 1013.79 1013.42 1013.08 1012.64 1012.59 1012.10 1011.73 1011.15 1011.09 1011.49 1012.11 1012.05 1011.43 1011.06 1010.40 1010.02 1009.93 1009.83 1010.00 1009.98 1010.15 1010.42 1010.66 1010.78 1010.81 1010.92 1011.32 1011.63 1011.92 1012.30 1012.42 1012.66 1012.19 1012.13 1012.09 1012.01 1011.92 1011.81 1011.62 1011.54 1011.45 1011.32 1011.20 1011.09 1010.99 1011.00 1010.98 1011.04
1019.14 1018.42 1018.34 1017.81 1017.38 1015.96 1014.75 1014.34 1014.11 1013.54 1013.11 1012.69 1012.34 1011.86 1011.80 1012.43 1012.99 1012.94 1012.44 1011.93 1011.57 1011.14 1010.64 1010.34 1010.41 1010.52 1010.83 1010.96 1011.22 1011.46 1011.53 1011.46 1011.48 1011.92 1012.36 1012.60 1012.74 1012.82 1012.89 1012.81 1012.59 1012.16 1011.87 1011.71 1011.63 1011.34 1011.19 1011.12 1010.91 1010.81 1010.81 1010.73 1010.68 1010.60
1019.87 1019.88 1019.66 1018.99 1018.14 1016.76 1015.86 1015.48 1014.34 1013.62 1013.00 1012.30 1011.71 1011.75 1011.76 1012.54 1013.10 1013.35 1013.26 1012.94 1012.52 1012.06 1011.37 1011.15 1011.02 1010.98 1011.32 1011.70 1011.82 1011.84 1012.12 1012.22 1012.11 1012.28 1012.61 1012.95 1012.85 1012.66 1012.48 1012.31 1012.21 1012.06 1011.87 1011.81 1011.74 1011.59 1011.51 1011.41 1011.26 1011.11 1010.97 1010.86 1010.56 1010.31
1021.09 1020.97 1020.75 1020.21 1019.10 1017.15 1016.74 1016.55 1015.47 1014.50 1013.28 1012.58 1011.67 1011.10 1011.67 1012.38 1013.38 1013.87 1014.00 1013.53 1013.33 1013.15 1012.83 1012.42 1012.08 1012.06 1012.06 1012.26 1012.36 1012.30 1012.36 1012.77 1012.92 1013.20 1013.23 1013.30 1013.22 1012.95 1012.60 1012.30 1012.12 1011.94 1011.79 1011.75 1011.78 1011.74 1011.68 1011.64 1011.60 1011.46 1011.39 1011.26 1010.88 1010.63
1021.59 1021.50 1020.96 1020.67 1019.92 1018.95 1018.33 1017.98 1016.83 1015.68 1014.71 1013.27 1012.17 1011.46 1011.83 1012.49 1013.46 1014.05 1014.18 1014.05 1014.16 1014.12 1013.74 1013.45 1013.13 1012.88 1012.90 1013.05 1013.18 1013.29 1013.50 1013.91 1014.04 1014.00 1013.83 1013.89 1013.76 1013.30 1012.88 1012.65 1012.40 1012.13 1011.85 1011.79 1011.79 1011.78 1011.78 1011.72 1011.68 1011.65 1011.53 1011.38 1011.23 1010.96
Thickness
5343 5348 5353 5359 5364 5367 5374 5381 5386 5390 5396 5401 5406 5415 5421 5422 5423 5426 5421 5430 5441 5426 5424 5445 5452 5450 5446 5450 5455 5438 5442 5436 5442 5453 5454 5446 5445 5462 5467 5471 5479 5476 5464 5458 5444 5442 5464 5491 5486 5494 5486 5483 5488 5484
5335 5339 5344 5351 5356 5362 5367 5372 5379 5387 5394 5400 5407 5412 5414 5416 5419 5424 5418 5428 5440 5433 5418 5427 5433 5438 5448 5453 5445 5429 5440 5438 5438 5439 5433 5439 5442 5440 5460 5447 5467 5455 5473 5458 5463 5467 5474 5475 5476 5473 5472 5472 5468 5468
5332 5333 5336 5341 5347 5352 5357 5364 5371 5376 5383 5391 5398 5403 5410 5413 5416 5420 5412 5416 5425 5419 5415 5416 5415 5424 5434 5436 5441 5429 5425 5435 5434 5436 5426 5424 5436 5432 5437 5438 5453 5457 5457 5451 5461 5460 5461 5460 5466 5465 5454 5456 5452 5450
5327 5328 5330 5334 5339 5343 5348 5356 5362 5368 5373 5378 5383 5389 5392 5395 5401 5409 5402 5405 5413 5407 5393 5396 5410 5412 5417 5426 5432 5434 5428 5422 5421 5420 5410 5405 5413 5413 5413 5428 5433 5436 5439 5435 5432 5440 5445 5448 5446 5445 5438 5434 5431 5431
5322 5323 5325 5328 5332 5335 5339 5345 5351 5356 5362 5368 5373 5378 5382 5386 5389 5395 5397 5390 5395 5401 5381 5383 5394 5396 5401 5412 5413 5415 5415 5410 5403 5399 5393 5391 5397 5400 5388 5397 5402 5413 5413 5405 5413 5423 5426 5427 5426 5422 5418 5416 5415 5413
5319 5319 5320 5323 5325 5327 5328 5331 5337 5344 5350 5355 5362 5369 5375 5383 5388 5387 5374 5384 5385 5388 5378 5364 5365 5373 5381 5387 5388 5389 5389 5384 5380 5378 5370 5379 5385 5387 5376 5383 5403 5397 5403 5410 5412 5404 5406 5408 5407 5412 5408 5398 5394 5390
5315 5316 5316 5316 5318 5319 5322 5324 5328 5333 5339 5344 5351 5358 5363 5369 5376 5363 5349 5358 5374 5379 5364 5347 5346 5358 5365 5367 5360 5364 5363 5357 5364 5350 5352 5360 5362 5369 5358 5372 5395 5393 5394 5393 5395 5396 5396 5388 5389 5388 5389 5386 5383 5381
5309 5310 5312 5313 5313 5313 5314 5317 5321 5324 5329 5333 5338 5343 5349 5356 5358 5348 5348 5357 5365 5359 5356 5341 5341 5340 5349 5335 5340 5337 5339 5337 5340 5333 5341 5346 5350 5343 5342 5374 5379 5380 5382 5381 5381 5381 5386 5385 5380 5373 5373 5372 5372 5369
5300 5302 5305 5309 5311 5312 5314 5317 5321 5325 5328 5332 5336 5342 5344 5338 5328 5329 5343 5349 5354 5351 5338 5339 5333 5319 5333 5335 5329 5329 5327 5318 5330 5340 5338 5333 5330 5342 5365 5370 5371 5372 5375 5377 5374 5371 5372 5367 5367 5366 5365 5362 5359 5359
5291 5294 5298 5302 5308 5311 5313 5315 5317 5320 5323 5328 5332 5328 5312 5318 5325 5333 5332 5329 5326 5320 5324 5323 5322 5337 5333 5330 5329 5333 5322 5322 5315 5330 5327 5328 5338 5356 5357 5359 5360 5361 5363 5364 5364 5368 5369 5364 5361 5362 5360 5361 5362 5362
5288 5293 5297 5300 5305 5308 5309 5310 5312 5315 5319 5315 5308 5308 5311 5319 5322 5317 5307 5313 5314 5318 5318 5315 5319 5323 5322 5316 5317 5313 5314 5314 5323 5317 5322 5328 5339 5353 5360 5358 5356 5358 5361 5361 5361 5365 5369 5368 5367 5364 5364 5366 5371 5370
5291 5295 5299 5301 5303 5306 5306 5306 5308 5308 5306 5308 5309 5308 5310 5307 5303 5304 5307 5306 5311 5316 5308 5313 5316 5314 5317 5319 5318 5323 5332 5326 5329 5317 5325 5327 5341 5362 5357 5355 5355 5353 5354 5359 5362 5364 5369 5371 5372 5372 5372 5370 5367 5363
5292 5297 5300 5303 5303 5302 5302 5303 5304 5304 5306 5307 5306 5308 5302 5299 5285 5297 5286 5302 5297 5306 5302 5305 5301 5312 5309 5312 5317 5319 5319 5309 5325 5326 5326 5337 5354 5349 5344 5344 5345 5345 5348 5352 5355 5361 5364 5364 5363 5362 5363 5357 5355 5352
5289 5291 5293 5297 5298 5298 5299 5299 5301 5303 5303 5295 5295 5273 5281 5275 5291 5292 5299 5288 5299 5297 5303 5299 5305 5305 5308 5310 5309 5306 5312 5327 5309 5316 5340 5345 5344 5338 5338 5338 5339 5339 5341 5346 5350 5352 5353 5353 5352 5352 5350 5347 5344 5349
5289 5289 5289 5288 5290 5292 5294 5296 5299 5301 5298 5294 5295 5283 5288 5283 5289 5297 5299 5301 5305 5304 5296 5299 5300 5307 5311 5315 5312 5313 5309 5301 5319 5330 5335 5337 5342 5338 5339 5338 5337 5338 5340 5342 5344 5344 5346 5347 5346 5345 5344 5342 5340 5339
5283 5283 5279 5280 5284 5287 5290 5294 5294 5293 5296 5296 5293 5283 5287 5277 5276 5297 5303 5297 5305 5297 5301 5309 5312 5307 5314 5325 5322 5315 5325 5323 5338 5339 5336 5336 5343 5343 5339 5335 5333 5334 5335 5337 5337 5336 5336 5337 5338 5336 5336 5335 5335 5333
5273 5261 5260 5268 5275 5281 5286 5287 5288 5290 5289 5290 5274 5276 5266 5272 5272 5302 5306 5301 5307 5306 5298 5309 5313 5326 5321 5326 5333 5332 5323 5333 5336 5326 5323 5337 5348 5339 5332 5330 5328 5329 5330 5330 5329 5329 5329 5330 5330 5330 5329 5326 5325 5323
5266 5260 5258 5266 5273 5277 5279 5281 5283 5285 5291 5281 5274 5267 5285 5274 5270 5283 5299 5307 5310 5307 5307 5316 5315 5322 5317 5340 5338 5333 5334 5334 5333 5333 5331 5326 5337 5334 5332 5330 5327 5326 5326 5324 5324 5323 5323 5324 5324 5321 5320 5319 5316 5315
5270 5269 5269 5271 5273 5273 5271 5274 5278 5278 5276 5275 5275 5278 5282 5281 5289 5294 5297 5305 5313 5316 5317 5317 5317 5318 5319 5328 5321 5322 5325 5335 5336 5329 5327 5329 5332 5331 5329 5327 5325 5323 5322 5322 5321 5318 5316 5317 5315 5312 5309 5309 5307 5307
5270 5270 5270 5270 5272 5270 5265 5268 5273 5278 5275 5280 5282 5285 5287 5290 5293 5292 5298 5308 5313 5312 5318 5317 5315 5318 5317 5322 5326 5325 5331 5332 5332 5330 5325 5324 5327 5329 5328 5325 5323 5321 5318 5317 5315 5312 5310 5309 5307 5306 5304 5301 5297 5296
5267 5267 5268 5268 5266 5268 5271 5271 5272 5271 5277 5279 5288 5287 5291 5292 5296 5297 5298 5308 5309 5308 5308 5312 5311 5310 5320 5320 5322 5324 5325 5324 5328 5326 5327 5326 5323 5323 5322 5322 5320 5317 5315 5312 5311 5308 5307 5306 5305 5303 5300 5297 5296 5293
5262 5263 5264 5265 5265 5266 5268 5270 5270 5275 5283 5285 5285 5290 5293 5285 5287 5297 5298 5305 5305 5309 5310 5311 5314 5318 5320 5321 5319 5321 5322 5321 5321 5316 5315 5316 5313 5312 5313 5313 5311 5306 5312 5313 5311 5309 5307 5305 5302 5300 5298 5295 5293 5290
5256 5258 5260 5260 5260 5258 5260 5267 5274 5281 5281 5283 5287 5292 5290 5285 5292 5298 5296 5302 5301 5308 5310 5314 5320 5320 5318 5318 5318 5318 5317 5316 5314 5311 5309 5309 5308 5303 5304 5304 5303 5299 5300 5304 5307 5305 5304 5303 5300 5299 5296 5293 5289 5287
5250 5253 5257 5255 5255 5244 5259 5257 5273 5281 5284 5285 5287 5291 5296 5281 5298 5293 5296 5302 5302 5300 5305 5314 5312 5308 5307 5310 5309 5306 5308 5309 5304 5298 5300 5302 5301 5300 5300 5299 5302 5302 5301 5302 5302 5301 5299 5297 5296 5293 5294 5291 5285 5284
5243 5244 5243 5226 5244 5253 5255 5255 5262 5276 5261 5277 5286 5272 5273 5283 5273 5273 5293 5297 5290 5298 5298 5295 5301 5301 5296 5302 5299 5296 5300 5303 5301 5296 5292 5297 5293 5291 5291 5291 5290 5292 5294 5295 5294 5287 5290 5287 5293 5292 5290 5285 5284 5282
5233 5222 5225 5224 5222 5243 5248 5238 5237 5247 5257 5260 5265 5271 5267 5259 5261 5271 5286 5279 5288 5291 5284 5274 5286 5296 5298 5299 5296 5290 5290 5291 5293 5287 5285 5287 5285 5283 5283 5282 5280 5283 5282 5283 5285 5288 5289 5289 5289 5288 5284 5282 5280 5278
5200 5195 5208 5212 5214 5220 5229 5239 5252 5248 5240 5238 5246 5244 5249 5252 5242 5265 5279 5277 5278 5277 5279 5281 5279 5283 5289 5286 5283 5280 5279 5280 5282 5278 5277 5277 5276 5274 5274 5274 5273 5272 5273 5274 5276 5277 5279 5281 5279 5278 5277 5273 5275 5275
5197 5189 5171 5184 5190 5204 5209 5222 5229 5233 5235 5237 5245 5237 5248 5243 5242 5247 5258 5256 5261 5265 5267 5269 5271 5274 5273 5269 5264 5263 5261 5265 5265 5263 5260 5257 5256 5257 5257 5258 5259 5260 5261 5263 5263 5264 5266 5268 5270 5270 5270 5265 5265 5267
5169 5168 5171 5155 5173 5191 5197 5197 5201 5207 5206 5211 5208 5222 5233 5229 5218 5219 5230 5236 5245 5251 5252 5254 5252 5254 5254 5252 5251 5248 5246 5254 5252 5249 5244 5239 5241 5240 5245 5246 5247 5248 5248 5249 5251 5252 5254 5256 5257 5259 5260 5261 5262 5262
5158 5159 5149 5137 5143 5162 5180 5177 5173 5184 5191 5195 5200 5208 5208 5201 5196 5201 5207 5214 5219 5226 5233 5238 5238 5241 5240 5239 5237 5236 5235 5234 5231 5229 5230 5234 5233 5231 5228 5228 5230 5233 5237 5238 5240 5242 5244 5244 5245 5248 5250 5251 5252 5255
5155 5139 5142 5146 5135 5137 5147 5143 5157 5166 5167 5177 5190 5192 5195 5185 5184 5185 5188 5193 5200 5205 5214 5220 5223 5227 5225 5222 5223 5224 5222 5222 5226 5225 5222 5219 5218 5220 5222 5223 5223 5224 5225 5225 5224 5226 5225 5227 5228 5231 5234 5236 5240 5244
5122 5130 5120 5128 5124 5133 5125 5114 5119 5125 5145 5159 5184 5191 5185 5179 5169 5166 5170 5176 5181 5185 5189 5195 5204 5206 5208 5208 5209 5210 5210 5209 5209 5208 5208 5207 5208 5210 5212 5214 5215 5216 5217 5217 5217 5217 5214 5214 5216 5219 5221 5225 5228 5230
5118 5100 5109 5111 5104 5108 5107 5112 5116 5116 5114 5128 5151 5172 5167 5168 5165 5159 5159 5163 5165 5168 5172 5177 5182 5187 5189 5189 5189 5191 5191 5189 5190 5191 5193 5193 5195 5198 5202 5203 5205 5207 5209 5210 5210 5210 5210 5210 5210 5209 5208 5209 5210 5215